Terminal Aerodrome Forecast
Issued by NWS Quad Cities IA IL

Home | Current Version | Previous Version | Text Only | Print | Product List | Glossary On
Versions: 1 2 3 4 5 6 7 8 9 10 11 12 13 14 15 16 17 18 19 20 21 22 23 24 25 26 27 28
000
FTUS43 KDVN 182300
TAFDBQ
TAF
KDBQ 182320Z 1900/1924 12004KT P6SM SKC
     FM190900 15005KT 4SM BR SCT003
      TEMPO 1909/1913 2SM BR SCT002
     FM191430 18011KT P6SM SCT010 SCT250=

USA.gov is the U.S. government's official web portal to all federal, state and local government web resources and services.